Skip Page Navigation
NASA JPL Caltech
NASA Logo - Jet Propulsion Laboratory + View the NASA Portal
+ Center for Near-Earth Object Studies
JPL Home Earth Solar System Stars & Galaxies Technology
JPL Solar System Dynamics
BODIES ORBITS EPHEMERIDES TOOLS PHYSICAL DATA DISCOVERY FAQ SITE MAP
IMPORTANT: The SSD Announcement email list is now available. Major changes are coming in the near future, including possible hostname and/or URL changes. To be notified of such changes, subscribe to this email list.

Please visit this page for more details.


JPL Small-Body Database Browser
Search: [ help ]  
183600 (2003 UQ45)
Classification: Main-belt Asteroid          SPK-ID: 2183600
Ephemeris | Orbit Diagram | Orbital Elements | Mission Design | Physical Parameters | Discovery Circumstances ]

[ show orbit diagram ]
Orbital Elements at Epoch 2458600.5 (2019-Apr-27.0) TDB
Reference: JPL 14 (heliocentric ecliptic J2000)
 Element Value Uncertainty (1-sigma)   Units 
e .1537521553494323 3.86e-08  
a 2.395102251380279 1.4095e-08 au
q 2.026850117948283 9.374e-08 au
i 1.967787564420563 4.2978e-06 deg
node 127.7508456996934 0.00017164 deg
peri 319.1427204811141 0.00017278 deg
M 35.93346179060077 2.1712e-05 deg
tp 2458465.360884136753
(2018-Dec-12.86088414)
8.1054e-05 TDB
period 1353.893537847068
3.71
1.1951e-05
3.272e-08
d
yr
n .2658997845373161 2.3472e-09 deg/d
Q 2.763354384812275 1.6262e-08 au
  Orbit Determination Parameters
   # obs. used (total)      395  
   data-arc span      8067 days (22.09 yr)  
   first obs. used      1997-02-03  
   last obs. used      2019-03-07  
   planetary ephem.      DE431  
   SB-pert. ephem.      SB431-N16  
   condition code      0  
   norm. resid. RMS      .60926  
   source      ORB  
   producer      Otto Matic  
   solution date      2019-Jul-13 12:38:17  

Additional Information
 Earth MOID = 1.04366 au 
 Jupiter MOID = 2.43424 au 
 T_jup = 3.512 
[ show covariance matrix ]

Ephemeris | Orbit Diagram | Orbital Elements | Mission Design | Physical Parameters | Discovery Circumstances ]

Physical Parameter Table
Parameter Symbol Value Units Sigma Reference Notes
absolute magnitude H 16.7   n/a MPO266563  

183600 (2003 UQ45)          Discovered 2003-Oct-18 by Spacewatch at Kitt Peak
Reference: 20080420/Numbers.arcLast Updated: 2008-04-23
Ephemeris | Orbit Diagram | Orbital Elements | Mission Design | Physical Parameters | Discovery Circumstances ]
ABOUT SSD CREDITS/AWARDS PRIVACY/COPYRIGHT GLOSSARY LINKS
FirstGov
(server date/time)  
NASA Home Page
Site Manager:   Ryan S. Park
Webmaster  Alan B. Chamberlin